Tracking 25734 objects as of 27-May-2022
HD Live streaming from Space Station
objects crossing your sky now

ATLAS H R/B

Track ATLAS H R/B now!
10-day predictions


NORAD ID: 16592
Int'l Code: 1986-014B
Perigee: 706.8 km
Apogee: 1,321.0 km
Inclination: 63.3 °
Period: 105.3 minutes
Semi major axis: 7384 km
RCS: Unknown
Launch date: February 9, 1986
Source: United States (US)
Launch site: AIR FORCE WESTERN TEST RANGE (AFWTR)

Note: This is a ROCKET BODY
aabbcc
Your satellite tracking list
Your tracking list is empty




NASA's NSSDC Master Catalog

Two Line Element Set (TLE):
1 16592U 86014B   22146.94474029  .00001632  00000-0  11103-2 0  9996
2 16592  63.3277 235.5456 0415896 127.6071 236.3491 13.68001983156997
Source of the keplerian elements: McCants